GW0605 Weather Reports


time (UTC)temp
C
wind
direction
speed
KPH
gust
KPH
rain 1hr
cm
rain 24hr
cm
rain mn
cm
humidity
%
barometer
mb
20260503053053 12 0 0.0 0.0 0.00 0.18 0.18 92 1010.2
20260503053016 13 0.0 0.0 0.00 0.18 0.18 93 1010.3
20260503052015 13 0.0 3.2 0.00 0.18 0.18 92 1010.3
20260503051553 12 0 0.0 3.2 0.00 0.18 0.18 92 1010.2
20260503051036 12 118 0.0 4.8 0.03 0.18 0.18 92 1010.4
20260503050052 12 0 1.6 6.4 0.03 0.18 0.18 92 1010.2
20260503050015 12 118 1.6 6.4 0.05 0.18 0.18 92 1010.3
20260503045015 12 125 0.0 3.2 0.08 0.18 0.18 92 1010.2
20260503044553 12 0 0.0 4.8 0.08 0.18 0.18 91 1010.1
20260503044056 12 125 1.6 4.8 0.10 0.18 0.18 92 1010.1
20260503043057 12 125 0.0 3.2 0.10 0.18 0.18 91 1010.1
20260503043015 13 125 1.6 3.2 0.13 0.18 0.18 92 1010.2
20260503042015 13 0.0 1.6 0.13 0.18 0.18 92 1010.3
20260503041550 12 0 0.0 1.6 0.10 0.18 0.18 91 1010.2
20260503041036 13 0.0 0.0 0.10 0.15 0.15 91 1010.5
20260503040056 12 0 0.0 1.6 0.08 0.13 0.13 91 1010.5
20260503040016 13 125 0.0 1.6 0.08 0.15 0.15 91 1010.6
20260503035015 13 125 0.0 3.2 0.05 0.10 0.10 91 1010.8
20260503034552 12 0 0.0 3.2 0.03 0.08 0.08 91 1010.8
20260503034015 13 0.0 1.6 0.03 0.08 0.08 91 1011.1
20260503033051 12 0 0.0 0.0 0.00 0.05 0.05 90 1011.1
20260503033036 13 0.0 0.0 0.00 0.05 0.05 91 1011.2
20260503032015 13 0.0 0.0 0.00 0.05 0.05 91 1011.3
20260503031553 13 0 0.0 0.0 0.00 0.05 0.05 90 1011.2
20260503031016 13 0.0 0.0 0.00 0.05 0.05 91 1011.3
20260503030049 13 0 0.0 1.6 0.00 0.05 0.05 90 1011.2
20260503030015 13 0.0 1.6 0.00 0.05 0.05 91 1011.2
20260503025015 13 125 0.0 1.6 0.00 0.05 0.05 91 1011.1
20260503024550 13 0 0.0 1.6 0.00 0.05 0.05 90 1011.0
20260503024035 13 125 0.0 1.6 0.00 0.05 0.05 91 1011.2
20260503023048 13 0 0.0 3.2 0.00 0.05 0.05 90 1011.3
20260503023015 13 125 0.0 3.2 0.00 0.05 0.05 91 1011.3
20260503022015 13 0.0 0.0 0.00 0.05 0.05 91 1011.2
20260503021548 13 0 0.0 3.2 0.00 0.05 0.05 90 1011.2
20260503021015 13 0.0 3.2 0.00 0.05 0.05 91 1011.2
20260503020052 13 0 0.0 0.0 0.00 0.05 0.05 90 1011.2
20260503020035 13 0.0 0.0 0.00 0.05 0.05 91 1011.3
20260503015035 13 0.0 0.0 0.00 0.05 0.05 91 1011.4
20260503014600 13 0 0.0 0.0 0.00 0.05 0.05 90 1011.3
20260503014015 13 0.0 0.0 0.00 0.05 0.05 91 1011.4
20260503013054 13 0 0.0 0.0 0.00 0.05 0.05 90 1011.3
20260503013035 13 0.0 0.0 0.00 0.05 0.05 91 1011.3
20260503012015 13 0.0 1.6 0.00 0.05 0.05 90 1011.3
20260503011554 13 0 0.0 1.6 0.00 0.05 0.05 90 1011.2
20260503011015 13 125 0.0 1.6 0.00 0.05 0.05 90 1011.4
20260503010053 13 0 0.0 0.0 0.00 0.05 0.05 90 1011.4
20260503010015 13 0.0 0.0 0.00 0.05 0.05 90 1011.6
20260503005015 13 0.0 0.0 0.00 0.05 0.05 90 1011.5
20260503004550 12 0 0.0 0.0 0.00 0.05 0.05 90 1011.4
20260503004035 13 0.0 0.0 0.00 0.05 0.05 90 1011.4
20260503003051 13 0 0.0 0.0 0.00 0.05 0.05 89 1011.4
20260503003015 13 0.0 0.0 0.00 0.05 0.05 90 1011.5
20260503002015 13 0.0 0.0 0.00 0.05 0.05 89 1011.6
20260503001551 13 0 0.0 0.0 0.00 0.05 0.05 89 1011.6
20260503001015 13 0.0 0.0 0.03 0.05 0.05 89 1011.7
20260503000051 13 0 0.0 4.8 0.00 0.05 0.05 89 1011.7
20260503000015 13 125 0.0 4.8 0.03 0.05 0.05 89 1011.9
20260502235015 13 126 1.6 9.7 0.05 0.05 0.05 89 1011.9
20260502234557 13 127 1.6 14.5 0.05 0.05 0.05 89 1011.8
20260502234015 13 106 3.2 14.5 0.05 0.05 0.05 89 1012.1
20260502233057 13 102 4.8 14.5 0.05 0.05 0.05 89 1012.2
20260502233035 13 111 4.8 14.5 0.05 0.05 0.05 89 1012.3
20260502232015 13 110 6.4 16.1 0.05 0.05 0.05 89 1012.6
20260502231603 13 114 8.0 16.1 0.05 0.05 0.05 89 1012.6
20260502231015 13 107 3.2 14.5 0.05 0.05 0.05 89 1013.0
20260502230053 13 117 4.8 16.1 0.03 0.03 0.03 89 1012.9
20260502230015 13 108 6.4 16.1 0.05 0.05 0.05 89 1012.9
20260502225015 13 102 6.4 12.9 0.00 0.00 0.00 88 1013.5
20260502224558 13 102 4.8 16.1 0.00 0.00 0.00 87 1013.6
20260502224015 13 112 4.8 16.1 0.00 0.00 0.00 87 1013.9
20260502223054 13 0 6.4 16.1 0.00 0.00 0.00 86 1013.9
20260502223015 13 102 6.4 16.1 0.00 0.00 0.00 87 1013.9
20260502222015 12 155 8.0 17.7 0.00 0.00 0.00 86 1014.2
20260502221600 12 135 3.2 16.1 0.00 0.00 0.00 86 1014.4
20260502221015 12 327 0.0 4.8 0.00 0.00 0.00 86 1013.1
20260502220055 12 0 0.0 3.2 0.00 0.00 0.00 86 1012.9
20260502220015 12 327 0.0 3.2 0.00 0.00 0.00 86 1012.9
20260502215015 12 327 0.0 4.8 0.00 0.00 0.00 86 1013.0
20260502214557 12 0 0.0 4.8 0.00 0.00 0.00 86 1013.1
20260502214015 12 327 0.0 4.8 0.00 0.00 0.00 86 1013.1
20260502213051 12 0 0.0 8.0 0.00 0.00 0.00 86 1013.2
20260502213015 12 327 0.0 8.0 0.00 0.00 0.00 86 1013.2
20260502212015 12 327 1.6 6.4 0.00 0.00 0.00 85 1013.4
20260502211552 12 327 0.0 3.2 0.00 0.00 0.00 85 1013.4
20260502211015 12 327 0.0 4.8 0.00 0.00 0.00 85 1013.5
20260502210100 12 0 0.0 6.4 0.00 0.00 0.00 85 1013.4
20260502210055 12 327 0.0 4.8 0.00 0.00 0.00 85 1013.6
20260502205015 12 327 0.0 6.4 0.00 0.00 0.00 85 1013.6
20260502204558 12 327 1.6 6.4 0.00 0.00 0.00 84 1013.6
20260502204015 13 327 0.0 6.4 0.00 0.00 0.00 85 1013.9
20260502203054 12 326 0.0 8.0 0.00 0.00 0.00 84 1013.8
20260502203035 13 326 0.0 8.0 0.00 0.00 0.00 84 1013.8
20260502202015 13 326 3.2 9.7 0.00 0.00 0.00 84 1014.0
20260502201552 13 0 1.6 9.7 0.00 0.00 0.00 83 1013.9
20260502201015 13 325 1.6 8.0 0.00 0.00 0.00 83 1014.1
20260502200053 13 0 0.0 8.0 0.00 0.00 0.00 83 1014.1
20260502200015 13 325 0.0 3.2 0.00 0.00 0.00 83 1014.2
20260502195015 13 325 0.0 6.4 0.00 0.00 0.00 83 1014.2
20260502194600 13 0 0.0 4.8 0.00 0.00 0.00 82 1014.2
20260502194015 13 325 0.0 8.0 0.00 0.00 0.00 82 1014.2
20260502193055 13 0 0.0 8.0 0.00 0.00 0.00 81 1014.1
20260502193015 14 324 1.6 8.0 0.00 0.00 0.00 82 1014.1
20260502192015 14 324 1.6 6.4 0.00 0.00 0.00 81 1014.3
20260502191555 14 0 0.0 9.7 0.00 0.00 0.00 80 1014.3
20260502191015 15 324 1.6 9.7 0.00 0.00 0.00 80 1014.4
20260502190051 15 322 0.0 6.4 0.00 0.00 0.00 79 1014.4
20260502190015 15 322 1.6 6.4 0.00 0.00 0.00 79 1014.4
20260502185015 15 322 1.6 9.7 0.00 0.00 0.00 78 1014.4
20260502184601 15 320 0.0 6.4 0.00 0.00 0.00 77 1014.3
20260502184035 15 318 0.0 4.8 0.00 0.00 0.00 76 1014.3
20260502183054 15 0 1.6 8.0 0.00 0.00 0.00 74 1014.3
20260502183015 16 318 1.6 8.0 0.00 0.00 0.00 74 1014.3
20260502182014 16 315 1.6 6.4 0.00 0.00 0.00 73 1014.3
20260502181554 16 315 0.0 8.0 0.00 0.00 0.00 72 1014.2
20260502181015 16 315 1.6 8.0 0.00 0.00 0.00 72 1014.4
20260502164015 18 326 4.8 12.9 0.00 0.00 0.00 50 1015.2
20260502163053 18 360 3.2 17.7 0.00 0.00 0.00 49 1015.3
20260502163017 18 277 3.2 17.7 0.00 0.00 0.00 52 1015.3
20260502162017 18 276 4.8 12.9 0.00 0.00 0.00 51 1015.4
20260502161549 18 360 4.8 12.9 0.00 0.00 0.00 48 1015.4
20260502161015 18 310 6.4 12.9 0.00 0.00 0.00 51 1015.5
20260502152035 19 310 4.8 14.5 0.00 0.00 0.00 53 1015.9
20260502151606 18 360 1.6 16.1 0.00 0.00 0.00 52 1015.9
20260502151017 18 262 6.4 17.7 0.00 0.00 0.00 52 1016.0
20260502123104 17 210 11.3 25.7 0.00 0.00 0.00 69 1017.0
20260502123017 18 231 11.3 24.1 0.00 0.00 0.00 71 1017.1
20260502122017 18 302 11.3 25.7 0.00 0.00 0.00 72 1017.2
20260502121555 18 360 11.3 25.7 0.00 0.00 0.00 71 1017.2
20260502121017 18 248 9.7 20.9 0.00 0.00 0.00 72 1017.3
20260502115036 18 241 9.7 22.5 0.00 0.00 0.00 72 1017.3
20260502114549 18 211 14.5 22.5 0.00 0.00 0.00 71 1017.3
20260502114017 18 332 11.3 20.9 0.00 0.00 0.00 72 1017.4
20260502113057 18 222 11.3 19.3 0.00 0.00 0.00 71 1017.4
20260502113054 18 360 11.3 19.3 0.00 0.00 0.00 71 1017.3
20260502112017 18 208 6.4 20.9 0.00 0.00 0.00 73 1017.4
20260502111559 18 207 6.4 20.9 0.00 0.00 0.00 73 1017.4
20260502111017 18 251 8.0 22.5 0.00 0.00 0.00 73 1017.6
20260502110056 18 209 8.0 19.3 0.00 0.00 0.00 74 1017.5
20260502110017 18 269 9.7 19.3 0.00 0.00 0.00 75 1017.6
20260502105016 17 309 9.7 27.4 0.00 0.00 0.00 76 1017.6
20260502104551 17 208 9.7 27.4 0.00 0.00 0.00 76 1017.6
20260502104016 18 212 11.3 22.5 0.00 0.00 0.00 75 1017.6
20260502103104 18 360 8.0 19.3 0.00 0.00 0.00 75 1017.6
20260502103017 18 211 8.0 19.3 0.00 0.00 0.00 76 1017.6
20260502102016 18 360 6.4 14.5 0.00 0.00 0.00 76 1017.6
20260502101603 18 360 9.7 25.7 0.00 0.00 0.00 75 1017.5
20260502101016 18 360 4.8 17.7 0.00 0.00 0.00 77 1017.6
20260502100118 17 210 8.0 17.7 0.00 0.00 0.00 76 1017.6
20260502091015 15 150 1.6 9.7 0.00 0.00 0.00 85 1017.6
20260502090105 15 150 3.2 11.3 0.00 0.00 0.00 84 1017.6
20260502071035 15 0.0 1.6 0.00 0.00 0.00 75 1017.7
20260502070058 15 0 0.0 3.2 0.00 0.00 0.00 74 1017.6
20260502070056 15 128 0.0 3.2 0.00 0.00 0.00 74 1017.7
20260502065036 14 128 0.0 1.6 0.00 0.00 0.00 73 1017.6
20260502064606 14 0 0.0 1.6 0.00 0.00 0.00 73 1017.6
20260502064016 14 128 0.0 1.6 0.00 0.00 0.00 72 1017.5
20260502063052 13 0 0.0 8.0 0.00 0.00 0.00 71 1017.6
20260502063016 13 128 0.0 8.0 0.00 0.00 0.00 72 1017.7
20260502062016 13 128 1.6 6.4 0.00 0.00 0.00 70 1017.6
20260502061611 13 128 0.0 3.2 0.00 0.00 0.00 70 1017.5
20260502061016 13 128 0.0 3.2 0.00 0.00 0.00 70 1017.6
20260502060054 12 0 0.0 6.4 0.00 0.00 0.00 69 1017.5
20260502060016 12 128 1.6 6.4 0.00 0.00 0.00 70 1017.7
20260502055015 11 0.0 0.0 0.00 0.00 0.00 71 1017.4
20260502054552 11 0 0.0 0.0 0.00 0.00 0.00 71 1017.3
20260502054016 11 0.0 0.0 0.00 0.00 0.00 72 1017.4